Date String (YYYY-MM-DD hh:mm:ss) UTC,Instrument flags,absolute air pressure of the measurement (hPa),sample flow rate (lpm),inlet stack bypass flow (lpm),air temperature of the measurement (°C),ambient temperature measured by the external sensor (°C),aerosol sample conditioner tube jacket temperature (°C),OPC LED temperature (°C),internal box temperature (°C),relative humidity of the measurement (%),span deviation,mass concentration of particles derived from Lorenz-Mie calculation of OPC scattering (μg/m³),mass concentration of particles derived from Lorenz-Mie calculation of OPC scattering (μg/m³),mass concentration of particles derived from Lorenz-Mie calculation of OPC scattering (μg/m³)
DateTimeUTC,F1_M11,P_M11,Q1_M11,Q2_M11,T1_M11,T2_M11,T3_M11,T4_M11,T5_M11,U1_M11,ZSPAN_M11,X0_M11,X2_M11,X1_M11
2023-10-07 02:00:00,SystemResetWarning,0840.2,5.00,000.00,027.8,026.5,000.0,036.2,029.5,18.1,0001.4,0014.60,0006.17,0005.40
2023-10-07 02:01:00,SystemResetWarning,0840.2,5.00,000.00,027.8,026.5,000.0,036.3,029.5,18.1,0001.4,0014.67,0006.22,0005.41
2023-10-07 02:02:00,SystemResetWarning,0840.3,5.01,000.00,027.9,026.5,000.0,036.3,029.5,18.1,0002.0,0014.26,0006.24,0005.43
2023-10-07 02:03:00,SystemResetWarning,0840.3,5.01,000.00,027.9,026.5,000.0,036.3,029.5,18.1,0001.7,0014.51,0006.27,0005.46
2023-10-07 02:04:00,SystemResetWarning,0840.3,5.01,000.00,027.9,026.5,000.0,036.3,029.5,18.1,0002.0,0014.53,0006.29,0005.47
2023-10-07 02:05:00,SystemResetWarning,0840.3,5.00,000.00,027.9,026.5,000.0,036.3,029.5,18.0,0002.1,0014.02,0006.26,0005.47
2023-10-07 02:06:00,SystemResetWarning,0840.2,5.00,000.00,027.9,026.5,000.0,036.3,029.5,18.0,0002.3,0013.66,0006.28,0005.48
2023-10-07 02:07:00,SystemResetWarning,0840.2,4.99,000.00,027.9,026.6,000.0,036.3,029.5,18.0,0000.7,0013.69,0006.35,0005.49
2023-10-07 02:08:00,SystemResetWarning,0840.2,5.00,000.00,027.9,026.6,000.0,036.3,029.5,17.9,0000.0,0014.00,0006.38,0005.51
2023-10-07 02:09:00,SystemResetWarning,0840.2,5.00,000.00,027.9,026.6,000.0,036.3,029.5,17.9,0000.0,0013.94,0006.38,0005.51
2023-10-07 02:10:00,SystemResetWarning,0840.2,5.00,000.00,027.9,026.6,000.0,036.3,029.5,17.9,0000.0,0013.37,0006.37,0005.53
2023-10-07 02:11:00,SystemResetWarning,0840.2,5.00,000.00,027.9,026.6,000.0,036.3,029.5,17.9,0000.0,0012.53,0006.41,0005.55
2023-10-07 02:12:00,SystemResetWarning,0840.2,5.00,000.00,027.9,026.6,000.0,036.3,029.5,17.9,0000.0,0012.47,0006.43,0005.57
2023-10-07 02:13:00,SystemResetWarning,0840.2,5.00,000.00,027.9,026.6,000.0,036.3,029.6,17.9,0000.0,0012.57,0006.47,0005.60
2023-10-07 02:14:00,SystemResetWarning,0840.2,5.00,000.00,027.9,026.6,000.0,036.3,029.6,17.9,0000.0,0012.29,0006.53,0005.63
2023-10-07 02:15:00,SystemResetWarning,0840.2,5.00,000.00,027.9,026.6,000.0,036.3,029.6,17.8,0000.0,0013.27,0006.58,0005.66
2023-10-07 02:16:00,SystemResetWarning,0840.2,4.99,000.00,028.0,026.6,000.0,036.3,029.6,17.8,0000.1,0013.49,0006.63,0005.69
2023-10-07 02:17:00,SystemResetWarning,0840.2,5.00,000.00,028.0,026.6,000.0,036.3,029.6,17.8,0001.8,0013.44,0006.67,0005.72
2023-10-07 02:18:00,SystemResetWarning,0840.2,5.00,000.00,028.0,026.6,000.0,036.3,029.6,17.8,0002.2,0013.46,0006.69,0005.74
2023-10-07 02:19:00,SystemResetWarning,0840.2,5.01,000.00,028.0,026.6,000.0,036.4,029.6,17.8,0001.4,0013.17,0006.71,0005.77
2023-10-07 02:20:00,SystemResetWarning,0840.2,5.01,000.00,028.0,026.6,000.0,036.4,029.6,17.8,0001.6,0013.16,0006.74,0005.79
2023-10-07 02:21:00,SystemResetWarning,0840.2,5.01,000.00,028.0,026.6,000.0,036.4,029.6,17.8,0001.6,0013.15,0006.79,0005.82
2023-10-07 02:22:00,SystemResetWarning,0840.2,5.01,000.00,028.0,026.6,000.0,036.4,029.6,17.8,0001.7,0013.64,0006.83,0005.85
2023-10-07 02:23:00,SystemResetWarning,0840.2,5.00,000.00,028.0,026.6,000.0,036.4,029.6,17.8,0001.4,0014.11,0006.85,0005.86
2023-10-07 02:24:00,SystemResetWarning,0840.2,4.99,000.00,028.0,026.6,000.0,036.4,029.6,17.8,0000.5,0014.16,0006.89,0005.88
2023-10-07 02:25:00,SystemResetWarning,0840.2,4.99,000.00,028.0,026.6,000.0,036.4,029.6,17.8,0000.1,0014.52,0006.93,0005.88
2023-10-07 02:26:00,SystemResetWarning,0840.2,5.00,000.00,028.0,026.6,000.0,036.4,029.6,17.8,-000.1,0014.17,0006.94,0005.89
2023-10-07 02:27:00,SystemResetWarning,0840.2,4.99,000.00,028.0,026.6,000.0,036.4,029.7,17.8,0000.0,0014.27,0006.91,0005.91
2023-10-07 02:28:00,SystemResetWarning,0840.2,5.00,000.00,028.0,026.6,000.0,036.4,029.6,17.8,-000.3,0014.32,0006.93,0005.91
2023-10-07 02:29:00,SystemResetWarning,0840.2,5.00,000.00,028.0,026.6,000.0,036.4,029.6,17.7,-000.2,0015.20,0006.94,0005.93
2023-10-07 02:30:00,SystemResetWarning,0840.2,5.00,000.00,028.0,026.6,000.0,036.4,029.6,17.7,0000.0,0015.48,0006.97,0005.93
2023-10-07 02:31:00,SystemResetWarning,0840.3,5.01,000.00,028.0,026.6,000.0,036.4,029.6,17.7,-000.2,0015.60,0007.00,0005.94
2023-10-07 02:32:00,SystemResetWarning,0840.3,5.00,000.00,028.0,026.6,000.0,036.4,029.6,17.7,0000.2,0016.02,0006.99,0005.94
2023-10-07 02:33:00,SystemResetWarning,0840.2,4.99,000.00,028.0,026.6,000.0,036.4,029.6,17.7,0000.7,0015.63,0006.95,0005.93
2023-10-07 02:34:00,SystemResetWarning,0840.2,5.00,000.00,028.0,026.6,000.0,036.4,029.6,17.6,0001.4,0015.30,0006.92,0005.92
2023-10-07 02:35:00,SystemResetWarning,0840.2,5.00,000.00,028.0,026.6,000.0,036.4,029.6,17.6,0001.9,0015.31,0006.88,0005.91
2023-10-07 02:36:00,SystemResetWarning,0840.2,4.99,000.00,028.0,026.6,000.0,036.4,029.6,17.6,0002.2,0014.91,0006.80,0005.89
2023-10-07 02:37:00,SystemResetWarning,0840.3,5.00,000.00,028.0,026.6,000.0,036.4,029.6,17.6,0002.7,0014.97,0006.77,0005.88
2023-10-07 02:38:00,SystemResetWarning,0840.3,5.00,000.00,028.0,026.6,000.0,036.4,029.6,17.6,0002.8,0014.40,0006.76,0005.85
2023-10-07 02:39:00,SystemResetWarning,0840.4,5.00,000.00,028.0,026.6,000.0,036.4,029.6,17.5,0002.5,0014.43,0006.70,0005.81
2023-10-07 02:40:00,SystemResetWarning,0840.3,5.00,000.00,028.0,026.6,000.0,036.4,029.6,17.5,0001.6,0013.49,0006.63,0005.78
2023-10-07 02:41:00,SystemResetWarning,0840.3,5.00,000.00,028.0,026.6,000.0,036.4,029.6,17.5,0001.8,0013.82,0006.56,0005.76
2023-10-07 02:42:00,SystemResetWarning,0840.3,4.99,000.00,028.0,026.5,000.0,036.4,029.6,17.5,0001.9,0014.03,0006.49,0005.72
2023-10-07 02:43:00,SystemResetWarning,0840.3,5.00,000.00,028.0,026.5,000.0,036.4,029.6,17.5,0001.6,0014.13,0006.47,0005.72
2023-10-07 02:44:00,SystemResetWarning,0840.3,4.99,000.00,028.0,026.5,000.0,036.4,029.6,17.5,0001.1,0014.45,0006.44,0005.70
2023-10-07 02:45:00,SystemResetWarning,0840.3,5.01,000.00,028.0,026.5,000.0,036.4,029.6,17.5,0000.4,0015.02,0006.46,0005.69
2023-10-07 02:46:00,SystemResetWarning,0840.3,5.01,000.00,028.0,026.5,000.0,036.4,029.6,17.5,0001.1,0014.86,0006.44,0005.69
2023-10-07 02:47:00,SystemResetWarning,0840.3,5.01,000.00,028.0,026.5,000.0,036.4,029.6,17.5,0001.2,0014.82,0006.44,0005.68
2023-10-07 02:48:00,SystemResetWarning,0840.3,5.00,000.00,028.0,026.5,000.0,036.4,029.6,17.5,0000.5,0014.42,0006.41,0005.65
2023-10-07 02:49:00,SystemResetWarning,0840.3,5.00,000.00,028.0,026.5,000.0,036.4,029.6,17.5,0000.2,0015.28,0006.41,0005.62
2023-10-07 02:50:00,SystemResetWarning,0840.4,4.99,000.00,028.0,026.5,000.0,036.4,029.6,17.5,0000.3,0015.32,0006.42,0005.63
2023-10-07 02:51:00,SystemResetWarning,0840.4,5.00,000.00,028.0,026.5,000.0,036.5,029.6,17.5,0000.7,0015.74,0006.42,0005.62
2023-10-07 02:52:00,SystemResetWarning,0840.4,5.00,000.00,028.0,026.5,000.0,036.4,029.6,17.5,0000.9,0015.73,0006.41,0005.59
2023-10-07 02:53:00,SystemResetWarning,0840.3,5.01,000.00,028.0,026.5,000.0,036.4,029.6,17.5,0001.2,0015.74,0006.44,0005.59
2023-10-07 02:54:00,SystemResetWarning,0840.3,5.01,000.00,028.0,026.5,000.0,036.4,029.6,17.5,0001.6,0015.98,0006.47,0005.59
2023-10-07 02:55:00,SystemResetWarning,0840.3,4.99,000.00,028.0,026.5,000.0,036.4,029.6,17.5,0001.5,0015.63,0006.48,0005.58
2023-10-07 02:56:00,SystemResetWarning,0840.3,5.00,000.00,028.0,026.5,000.0,036.4,029.6,17.6,0001.4,0014.88,0006.44,0005.56
2023-10-07 02:57:00,SystemResetWarning,0840.3,4.99,000.00,028.0,026.5,000.0,036.4,029.6,17.6,0000.8,0015.02,0006.44,0005.54
2023-10-07 02:58:00,SystemResetWarning,0840.4,5.01,000.00,028.0,026.5,000.0,036.4,029.6,17.6,0000.6,0015.35,0006.43,0005.54
2023-10-07 02:59:00,SystemResetWarning,0840.3,5.01,000.00,027.9,026.5,000.0,036.4,029.6,17.6,0000.8,0015.12,0006.40,0005.55
